Location: Dana
(41.8364°N, 106.7042°W)
Time: 02:11:27
(UTC+00:00)

Altair - Pass Details

Date: 14 May 2026
Orbit: 1501 x 1682 km, 47.2° (Epoch: 6 June)

Event Time Altitude Azimuth Distance (km) Brightness Sun altitude
Rises 19:24:53 0° 297° (WNW) 4,939 10.1 66.5°
Reaches altitude 10° 19:28:19 10° 290° (WNW) 3,945 9.8 66.3°
Maximum altitude 19:37:25 40° 226° (SW) 2,294 9.7 65.8°
Drops below altitude 10° 19:46:20 10° 161° (SSE) 3,850 10.0 65.2°
Sets 19:49:39 0° 154° (SSE) 4,809 10.3 64.9°
